Wind_Speed
4 6 12 12 13 14 14 14 13 11 9 9 9 10 9 8 7 7 6 6 7 5 4 1 2 2 2 3 5 8 9 8 10 15 10 27 10 20 13 10 13 11 15 14 12
5 4 11 12 13 13 12 12 11 10 10 9 8 9 9 8 8 8 8 8 8 8 5 4 2 0 2 2 5 9 7 7 12 16 13 12 15 21 16 24 22 20 21 18 18
6 6 8 12 12 12 11 11 11 10 10 10 10 9 9 9 10 9 9 10 9 9 7 6 5 3 1 2 2 8 11 14 27 32 21 14 13 16 13 12 18 22 16 16 20
6 7 7 8 10 11 11 10 10 10 10 11 10 10 10 11 12 10 9 8 9 10 8 8 7 6 4 4 5 5 13 13 10 10 13 13 16 18 19 21 16 21 19 19 18
7 6 7 7 8 9 9 9 9 9 9 10 11 11 11 11 10 9 8 7 7 9 9 10 10 8 8 10 10 11 13 12 10 8 11 15 15 20 20 17 21 22 23 20 18
7 7 7 7 7 8 8 8 7 8 8 8 9 9 9 9 8 7 6 6 7 8 10 10 11 11 12 15 12 15 16 17 15 15 13 14 22 17 21 21 24 25 24 22 17
8 7 7 7 7 7 7 7 7 7 7 7 8 9 9 9 9 8 8 8 8 9 10 11 11 12 13 16 16 18 19 21 20 21 22 19 24 21 23 24 24 23 22 21 21
9 10 10 8 8 8 8 7 7 7 7 7 7 8 8 9 9 10 10 11 11 12 12 13 14 14 14 17 14 16 16 15 19 17 24 19 15 29 20 21 21 22 22 23 24
5 7 9 10 11 10 9 8 8 8 8 9 10 10 11 11 12 12 12 13 14 16 16 16 16 16 16 15 15 14 13 12 22 23 20 16 11 29 18 18 21 23 25 25 26
4 4 4 5 7 8 9 9 10 10 10 10 10 10 10 10 11 12 12 14 15 17 18 18 18 17 17 14 10 10 19 11 20 30 16 18 15 26 19 18 20 24 28 29 29
5 5 5 5 5 6 6 6 6 6 7 8 9 10 10 10 10 11 12 13 15 16 17 17 18 18 15 16 17 21 17 16 18 30 19 16 20 30 21 22 24 25 29 31 30
7 6 6 7 7 6 6 6 6 7 8 8 8 8 8 10 10 11 12 13 13 13 13 14 15 19 20 19 20 20 16 14 27 32 23 19 25 32 23 25 25 26 28 31 33
8 8 7 7 7 7 6 6 7 8 9 9 8 9 9 10 11 11 12 12 12 13 14 11 21 20 18 19 19 18 13 15 20 29 25 23 30 27 28 27 29 28 29 32 34
10 10 10 9 9 8 8 8 8 8 10 9 9 10 11 12 12 12 12 12 12 13 13 15 25 20 19 18 20 10 23 26 28 28 18 24 24 20 37 29 27 29 31 33 35
11 11 11 11 11 10 9 9 8 8 2 10 10 10 12 14 14 11 12 12 12 13 11 16 20 18 18 14 23 16 30 28 27 27 26 21 26 17 29 32 30 29 32 35 38
13 13 13 12 12 11 11 11 10 9 13 13 13 13 13 13 15 17 16 15 15 14 12 19 17 20 20 24 23 25 22 24 21 21 23 19 20 14 28 29 32 33 34 37 40
14 14 14 14 12 12 12 12 10 6 11 12 12 12 14 18 18 18 19 20 16 14 9 21 19 18 17 21 22 23 21 17 19 18 21 16 19 17 33 40 28 40 41 43 43
14 14 14 13 12 12 12 12 11 14 12 10 11 12 14 16 19 20 20 18 22 17 13 12 15 26 19 17 15 14 20 13 17 16 20 24 25 28 32 31 34 36 40 46 47
18 17 15 13 13 13 12 11 14 13 13 14 15 14 18 18 18 22 21 21 23 22 20 11 14 28 22 19 17 11 14 21 24 22 20 17 22 29 40 36 32 33 37 41 43
23 21 19 17 16 16 16 17 17 17 17 18 17 18 16 17 21 18 16 29 22 20 22 20 21 25 24 21 20 20 22 20 15 18 19 14 13 29 41 44 42 41 42 41 42
27 27 24 23 22 22 20 23 21 20 21 21 22 23 22 23 23 22 24 28 19 20 20 22 22 20 26 24 15 20 15 21 26 23 24 22 20 34 40 44 41 36 41 40 43
30 31 26 29 27 27 28 25 25 24 24 24 25 25 25 26 23 22 24 25 21 21 21 23 20 21 22 25 26 24 26 27 29 26 21 24 26 41 39 38 36 34 41 43 44
31 32 30 31 30 32 31 30 28 26 26 26 26 26 27 25 23 22 23 20 23 23 23 22 21 22 19 27 26 25 24 24 29 30 29 29 22 37 44 36 32 36 39 42 47
32 31 31 31 31 30 28 30 29 26 27 26 25 23 23 22 23 21 21 20 22 22 23 22 21 22 22 19 30 30 31 30 29 29 27 20 23 28 40 41 39 41 44 48 53
33 34 31 31 31 31 30 30 28 28 25 23 22 22 22 20 21 22 22 24 22 22 23 23 23 24 24 25 27 29 29 30 31 28 26 24 26 33 35 36 37 42 47 50 55
33 33 33 33 32 31 32 32 32 33 27 28 25 27 23 24 23 22 23 23 24 26 23 25 25 26 26 27 28 26 27 26 26 26 24 26 28 30 33 38 41 47 50 52 56
37 36 35 36 32 32 36 32 31 32 33 32 30 29 30 29 24 24 24 25 26 27 26 24 25 27 28 28 26 25 25 23 23 25 23 24 27 32 36 40 44 51 52 55 57
Wind_Direction
180 189 188 180 177 177 179 183 189 196 209 223 227 215 211 217 243 262 272 257 233 231 211 183 69 59 68 170 198 181 172 243 256 236 267 253 263 238 251 254 273 267 276 286 278
182 166 182 183 182 183 186 192 203 216 228 223 209 203 209 232 257 271 266 254 233 229 223 224 222 330 35 154 193 189 192 213 223 223 230 235 246 256 247 261 278 279 271 272 283
180 169 173 188 191 194 201 210 219 224 220 209 205 213 230 253 270 277 272 257 235 226 231 231 235 245 292 29 198 200 204 243 243 236 211 233 209 238 244 267 260 264 264 283 292
172 172 174 178 193 200 206 210 212 212 213 217 221 233 246 260 273 273 265 253 235 225 230 235 239 244 251 234 214 203 220 219 242 216 195 222 211 237 232 245 269 266 271 281 291
167 167 171 181 192 197 200 205 212 218 222 227 233 243 250 256 263 267 269 261 249 237 238 240 242 240 235 240 243 242 234 235 236 223 205 218 237 253 252 259 267 275 281 279 280
181 177 178 181 186 191 196 202 209 216 223 231 238 242 245 247 248 254 251 254 253 250 247 246 251 251 241 243 239 251 259 249 248 248 249 248 250 262 261 270 272 277 278 276 265
200 197 197 199 201 202 205 210 216 222 228 236 240 245 248 251 250 251 252 249 250 254 258 251 252 260 266 261 254 258 265 273 266 265 258 254 263 268 274 273 272 273 271 266 259
221 221 218 215 214 217 220 223 225 225 226 231 238 246 251 253 256 258 260 259 257 256 259 258 257 260 263 273 273 269 267 262 281 275 271 260 269 272 261 264 266 265 262 258 260
216 224 228 230 233 234 233 234 237 239 243 248 250 252 256 260 261 262 263 265 264 260 257 258 259 261 264 275 280 280 251 258 254 271 269 270 232 262 262 261 266 270 268 265 270
207 216 218 222 227 231 236 241 246 250 254 257 261 263 261 263 266 268 269 268 266 265 267 265 264 264 264 265 238 280 278 244 238 272 259 272 227 270 270 270 274 276 274 269 273
221 231 231 229 225 225 228 233 234 244 254 261 267 269 272 272 271 274 274 273 273 271 272 271 272 270 261 252 235 241 240 242 244 260 276 249 245 271 273 280 282 277 274 275 278
233 241 241 239 233 228 231 242 254 260 265 269 273 275 276 277 279 284 283 280 275 276 273 274 283 236 262 255 257 258 251 244 240 270 271 264 276 278 281 281 277 276 274 275 277
237 236 236 232 234 239 245 252 261 266 270 274 273 277 281 285 290 292 293 290 283 275 270 249 227 276 264 264 263 262 236 246 245 271 279 280 281 297 280 281 275 275 275 275 278
241 240 240 240 239 241 247 253 259 269 277 274 281 283 286 288 292 297 297 293 283 275 270 253 267 269 268 262 253 234 270 254 260 272 280 266 274 273 286 287 275 276 277 279 282
246 242 239 239 242 243 245 252 260 270 282 289 288 287 290 294 296 293 297 293 290 284 270 259 278 269 267 247 260 236 254 268 270 276 279 272 284 296 277 290 282 281 281 283 287
247 246 247 244 245 248 252 257 264 270 265 280 288 293 295 297 300 302 301 297 294 295 288 268 279 269 256 271 267 264 271 272 284 296 285 287 261 259 286 279 290 285 284 286 291
251 250 250 250 250 248 251 254 257 253 278 284 291 297 301 303 303 302 302 305 307 311 325 299 307 292 276 273 276 274 273 288 277 261 270 247 272 275 260 273 281 290 295 294 297
246 249 251 251 248 248 248 251 248 252 263 274 286 297 299 308 302 300 300 299 298 293 282 282 276 288 300 278 254 248 263 263 265 261 245 299 302 277 274 282 288 290 296 299 301
243 245 247 248 246 244 244 245 242 251 263 274 286 296 302 303 299 304 297 282 280 286 281 261 265 277 290 287 280 258 287 256 270 280 291 289 279 281 283 283 291 294 295 294 296
242 242 244 247 249 249 250 249 258 262 268 276 283 291 287 279 306 293 282 287 285 280 280 273 267 279 283 284 283 275 273 277 282 277 282 262 276 262 273 289 300 303 300 301 300
245 247 244 248 251 256 258 258 262 264 269 275 280 284 285 288 296 290 287 285 288 283 282 279 277 267 284 287 274 283 291 291 284 275 276 281 270 267 269 283 294 294 295 298 299
251 251 248 251 254 255 258 261 266 268 270 273 275 279 283 287 290 290 287 287 288 286 286 287 279 276 267 277 286 278 273 273 276 281 276 277 284 280 280 284 293 293 296 298 301
255 256 256 256 253 257 259 263 265 267 268 270 274 278 282 285 285 284 285 291 289 290 291 291 286 282 278 286 287 283 284 278 279 281 283 282 290 288 289 296 297 298 299 301 302
256 255 258 260 257 256 258 259 261 260 264 269 273 277 281 282 281 283 286 292 289 290 290 286 283 281 279 262 271 285 291 288 284 285 283 277 252 268 280 304 307 308 306 310 310
252 254 254 254 258 256 256 258 260 262 261 264 269 273 276 276 279 282 286 289 287 291 289 288 287 283 280 281 284 282 281 283 286 287 283 284 283 283 297 302 303 305 306 309 305
251 253 252 252 253 254 255 255 256 260 259 262 264 271 273 272 273 278 285 287 291 295 289 290 286 283 282 285 288 289 286 283 280 281 287 291 291 302 303 306 311 309 311 309 309
249 249 249 251 251 252 253 254 256 259 258 259 263 264 269 268 273 275 280 285 290 291 291 291 288 285 287 286 287 288 287 283 283 286 288 292 297 301 305 310 311 310 314 312 312
Height
5869 5869 5871 5872 5874 5876 5878 5880 5881 5883 5884 5885 5886 5887 5889 5890 5891 5891 5892 5892 5892 5892 5892 5892 5892 5892 5891 5891 5892 5895 5900 5906 5910 5910 5911 5898 5901 5904 5900 5898 5896 5895 5893 5893 5894
5870 5870 5871 5872 5874 5876 5877 5879 5881 5882 5883 5884 5886 5887 5888 5889 5889 5890 5890 5889 5890 5890 5892 5892 5892 5892 5892 5891 5892 5893 5899 5906 5905 5905 5905 5899 5902 5899 5899 5896 5894 5893 5892 5893 5892
5869 5870 5871 5872 5873 5875 5877 5878 5880 5881 5882 5883 5885 5886 5887 5888 5888 5888 5887 5888 5888 5889 5890 5891 5891 5892 5891 5892 5892 5893 5897 5903 5896 5897 5898 5901 5901 5895 5897 5895 5892 5889 5890 5890 5889
5869 5870 5871 5872 5873 5875 5876 5878 5879 5880 5881 5883 5884 5885 5886 5886 5887 5885 5886 5886 5887 5888 5889 5890 5890 5890 5891 5893 5893 5893 5893 5892 5891 5892 5894 5896 5896 5894 5893 5890 5891 5888 5888 5888 5887
5869 5870 5871 5872 5873 5875 5876 5877 5879 5880 5881 5882 5883 5883 5884 5885 5885 5884 5884 5885 5885 5886 5887 5888 5888 5889 5891 5891 5892 5892 5891 5891 5890 5890 5890 5891 5890 5889 5888 5889 5888 5887 5885 5885 5884
5869 5870 5871 5872 5873 5875 5876 5877 5878 5879 5880 5880 5881 5881 5882 5883 5882 5882 5883 5883 5884 5885 5885 5886 5886 5887 5888 5888 5889 5888 5888 5888 5888 5888 5888 5889 5887 5887 5885 5885 5883 5882 5881 5880 5880
5869 5870 5871 5872 5873 5874 5875 5876 5877 5878 5879 5879 5879 5880 5881 5882 5881 5881 5881 5881 5882 5883 5884 5884 5884 5885 5886 5885 5885 5885 5885 5883 5884 5884 5883 5885 5883 5883 5881 5880 5879 5878 5876 5876 5875
5868 5869 5870 5871 5872 5873 5874 5875 5876 5877 5877 5878 5878 5879 5879 5879 5879 5879 5880 5880 5880 5881 5882 5882 5882 5883 5883 5882 5883 5882 5883 5883 5881 5879 5878 5881 5882 5873 5877 5875 5874 5873 5872 5872 5871
5868 5869 5869 5870 5872 5873 5874 5874 5875 5876 5876 5877 5877 5877 5878 5878 5877 5878 5878 5878 5878 5878 5879 5879 5880 5880 5880 5880 5879 5879 5883 5882 5880 5876 5876 5876 5879 5870 5873 5872 5871 5870 5869 5868 5867
5868 5868 5869 5870 5870 5871 5872 5873 5873 5874 5875 5875 5876 5877 5876 5876 5875 5875 5875 5875 5875 5875 5875 5876 5876 5876 5876 5877 5882 5886 5882 5882 5882 5872 5873 5872 5873 5867 5869 5869 5868 5866 5863 5863 5861
5868 5868 5869 5869 5869 5870 5871 5871 5873 5874 5873 5873 5874 5874 5874 5874 5874 5873 5873 5872 5872 5872 5872 5872 5872 5873 5873 5875 5876 5875 5877 5879 5876 5866 5869 5870 5869 5864 5866 5864 5862 5861 5858 5856 5855
5868 5868 5868 5869 5869 5869 5870 5870 5871 5872 5872 5871 5872 5872 5872 5871 5871 5871 5870 5870 5870 5869 5869 5870 5870 5868 5868 5869 5869 5869 5871 5873 5867 5862 5864 5864 5861 5857 5859 5858 5856 5855 5853 5850 5848
5866 5867 5867 5868 5868 5869 5869 5869 5869 5870 5870 5870 5870 5870 5870 5869 5868 5868 5868 5866 5866 5866 5866 5867 5866 5863 5864 5864 5865 5865 5867 5869 5864 5857 5858 5858 5856 5855 5852 5852 5850 5848 5847 5845 5843
5864 5865 5866 5866 5868 5867 5867 5868 5868 5868 5868 5869 5868 5868 5867 5866 5866 5865 5864 5864 5863 5862 5862 5862 5857 5860 5860 5860 5859 5864 5859 5857 5856 5855 5857 5852 5854 5854 5845 5846 5844 5842 5841 5839 5836
5862 5863 5863 5864 5865 5865 5866 5866 5866 5867 5869 5868 5866 5865 5864 5864 5863 5863 5862 5860 5859 5858 5859 5858 5854 5855 5855 5855 5852 5856 5851 5851 5851 5850 5849 5851 5849 5850 5842 5840 5837 5837 5834 5831 5828
5859 5860 5861 5862 5862 5863 5863 5864 5865 5866 5864 5864 5863 5862 5861 5861 5860 5858 5858 5857 5856 5854 5854 5851 5850 5849 5849 5847 5847 5847 5847 5846 5846 5846 5845 5845 5847 5849 5839 5833 5830 5828 5826 5823 5820
5856 5856 5857 5858 5860 5860 5860 5861 5863 5863 5863 5861 5860 5859 5858 5856 5856 5855 5853 5852 5852 5852 5853 5848 5846 5844 5844 5843 5842 5842 5842 5844 5846 5842 5839 5835 5838 5842 5832 5825 5829 5819 5816 5813 5811
5852 5853 5854 5855 5856 5857 5857 5859 5859 5858 5858 5858 5857 5857 5856 5854 5853 5851 5851 5850 5846 5847 5848 5849 5848 5839 5839 5839 5840 5839 5838 5841 5840 5841 5841 5832 5833 5829 5823 5822 5819 5816 5809 5802 5798
5848 5849 5851 5852 5853 5854 5855 5855 5856 5854 5855 5854 5854 5853 5851 5851 5850 5847 5846 5846 5844 5842 5842 5843 5844 5835 5835 5834 5835 5835 5834 5833 5831 5832 5831 5835 5830 5822 5815 5812 5811 5808 5804 5798 5791
5844 5845 5847 5848 5849 5850 5851 5850 5850 5850 5850 5850 5850 5850 5850 5847 5846 5845 5844 5838 5838 5838 5836 5836 5836 5832 5829 5829 5830 5829 5827 5828 5828 5827 5827 5829 5826 5815 5803 5801 5800 5797 5791 5787 5781
5839 5840 5842 5842 5843 5845 5845 5844 5845 5845 5845 5846 5844 5844 5844 5842 5841 5840 5838 5832 5834 5832 5831 5830 5829 5830 5825 5824 5826 5823 5823 5821 5818 5819 5817 5817 5820 5806 5801 5796 5795 5790 5783 5779 5774
5832 5833 5837 5836 5838 5838 5838 5839 5840 5839 5839 5839 5839 5838 5837 5835 5835 5833 5831 5827 5828 5827 5826 5823 5823 5823 5822 5820 5818 5817 5815 5813 5811 5811 5810 5807 5807 5795 5793 5790 5786 5783 5775 5768 5764
5823 5824 5827 5829 5830 5829 5830 5831 5832 5833 5832 5832 5832 5832 5830 5830 5829 5827 5824 5823 5822 5821 5820 5818 5817 5816 5816 5814 5812 5809 5808 5807 5803 5802 5801 5799 5799 5786 5779 5779 5778 5773 5766 5760 5753
5815 5817 5818 5821 5822 5822 5823 5823 5824 5826 5825 5826 5825 5825 5824 5823 5822 5821 5819 5817 5816 5815 5813 5812 5811 5810 5809 5810 5804 5803 5800 5797 5795 5793 5792 5793 5790 5784 5773 5769 5765 5760 5753 5749 5740
5806 5807 5809 5811 5813 5814 5815 5815 5816 5817 5818 5819 5819 5818 5817 5817 5816 5815 5814 5811 5810 5809 5807 5806 5805 5803 5801 5799 5797 5795 5793 5791 5788 5785 5783 5783 5779 5773 5769 5765 5760 5754 5746 5740 5730
5796 5799 5801 5802 5804 5806 5806 5807 5809 5809 5812 5811 5812 5811 5811 5811 5810 5809 5808 5807 5804 5802 5801 5799 5798 5796 5795 5793 5790 5788 5786 5784 5781 5779 5777 5775 5770 5768 5761 5755 5751 5742 5737 5728 5717
5787 5789 5792 5792 5795 5797 5796 5799 5800 5801 5802 5803 5804 5804 5803 5803 5803 5802 5801 5800 5799 5797 5794 5792 5790 5788 5787 5785 5784 5782 5779 5777 5774 5772 5771 5768 5763 5758 5753 5748 5742 5732 5725 5714 5705